Location: St. Louis
(38.6270°N, 90.1994°W)
Time: 04:38:11
(UTC-05:00)

RS-15 - Pass Details

Date: 30 January 2022
Orbit: 1881 x 2163 km, 64.8° (Epoch: 20 May)

Event Time Altitude Azimuth Distance (km) Brightness Sun altitude
Rises 20:45:32 0° 286° (WNW) 5,529 11.3 -40.1°
Reaches altitude 10° 20:50:27 10° 302° (WNW) 4,576 10.5 -41.0°
Maximum altitude 20:58:42 20° 347° (NNW) 3,858 9.7 -42.6°
Enters shadow 21:05:22 13° 24° (NNE) 4,403 9.7 -43.9°
